This demonstration page uses our WeatherBlox Daily Observations layout. Learn more.

Left ArrowRight Arrow

Hourly Observations for February 24, 2016

Temp ( °F °C ) Dew Point ( °F °C ) Humidity (%) Winds ( mph kmh ) Pressure ( in mb ) Visibility ( mi km ) Precip ( " mm )
12:15 am 00:15 Cloudy 36 2 27 -3 70 70 NE 15 24 29.80 1009 10 16 N/A
12:34 am 00:34 Cloudy 34 1 28 -2 81 81 NE 17 28 29.77 1008 10 16 N/A
12:54 am 00:54 Cloudy 34 1 30 -1 87 87 NNE 15 24 29.77 1008 7 11 N/A
1:15 am 01:15 Cloudy 34 1 30 -1 87 87 NE 17 28 29.74 1007 5 8 N/A
1:34 am 01:34 Cloudy 34 1 30 -1 87 87 NE 17 28 29.74 1007 5 8 N/A
1:54 am 01:54 Cloudy 34 1 32 undefined 93 93 NE 20 31 29.71 1006 3 5 N/A
2:15 am 02:15 Cloudy 34 1 32 undefined 93 93 NE 22 35 29.68 1005 3 5 N/A
2:34 am 02:34 Cloudy 34 1 32 undefined 93 93 NE 20 31 29.65 1004 4 6 N/A
2:54 am 02:54 Cloudy 34 1 32 undefined 93 93 NE 21 33 29.62 1003 3 5 N/A
3:15 am 03:15 Cloudy 34 1 32 undefined 93 93 NNE 23 37 29.59 1002 3 4 N/A
3:34 am 03:34 Cloudy 34 1 32 undefined 93 93 NE 21 33 29.59 1002 4 6 N/A
3:54 am 03:54 Cloudy 34 1 32 undefined 93 93 NE 23 37 29.56 1001 3 5 N/A
4:15 am 04:15 Cloudy 34 1 32 undefined 93 93 NNE 24 39 29.53 1000 3 5 N/A
4:34 am 04:34 Cloudy 34 1 32 undefined 93 93 NE 22 35 29.53 1000 N/A N/A
4:54 am 04:54 Cloudy 34 1 32 undefined 93 93 ENE 14 22 29.53 1000 N/A N/A
5:15 am 05:15 Cloudy 34 1 32 undefined 93 93 NE 23 37 29.53 1000 N/A N/A
5:34 am 05:34 Cloudy 32 undefined 32 undefined 100 100 NNE 24 39 29.47 998 N/A N/A
5:54 am 05:54 Cloudy 34 1 32 undefined 93 93 NNE 22 35 29.47 998 3 4 N/A
6:15 am 06:15 Cloudy 34 1 32 undefined 93 93 NE 23 37 29.44 997 3 4 N/A
6:34 am 06:34 Cloudy 34 1 32 undefined 93 93 NE 25 41 29.44 997 2 2 N/A
6:54 am 06:54 Cloudy 34 1 32 undefined 93 93 NNE 21 33 29.44 997 2 3 N/A
7:15 am 07:15 Cloudy 34 1 32 undefined 93 93 NNE 21 33 29.41 996 2 3 N/A
7:34 am 07:34 Cloudy 34 1 32 undefined 93 93 NNE 28 44 29.38 995 2 3 N/A
7:54 am 07:54 Cloudy 34 1 32 undefined 93 93 NNE 21 33 29.38 995 4 6 N/A
8:15 am 08:15 Cloudy 34 1 32 undefined 93 93 NNE 23 37 29.35 994 4 6 N/A
8:34 am 08:34 Cloudy 34 1 32 undefined 93 93 NE 24 39 29.35 994 2 2 N/A
8:54 am 08:54 undefined 34 1 32 undefined 93 93 NE 25 41 29.35 994 N/A N/A
9:15 am 09:15 Cloudy 34 1 32 undefined 93 93 NE 16 26 29.35 994 N/A N/A
9:34 am 09:34 Cloudy 34 1 32 undefined 93 93 NE 24 39 29.32 993 5 8 N/A
9:55 am 09:55 Cloudy 34 1 32 undefined 93 93 NE 20 31 29.32 993 4 6 N/A
10:14 am 10:14 Cloudy 34 1 32 undefined 93 93 NE 23 37 29.32 993 7 11 N/A
10:34 am 10:34 Cloudy 34 1 32 undefined 93 93 NE 22 35 29.29 992 7 11 N/A
10:54 am 10:54 Cloudy 34 1 32 undefined 93 93 NE 25 41 29.29 992 4 6 N/A
11:14 am 11:14 Cloudy 34 1 34 1 100 100 NE 23 37 29.29 992 7 11 N/A
11:35 am 11:35 Cloudy 36 2 34 1 93 93 NE 22 35 29.29 992 10 16 N/A
11:54 am 11:54 Cloudy 36 2 34 1 93 93 NE 16 26 29.29 992 10 16 N/A
12:14 pm 12:14 Cloudy 36 2 34 1 93 93 NE 24 39 29.29 992 10 16 N/A
12:35 pm 12:35 Cloudy 36 2 34 1 93 93 NNE 17 28 29.29 992 10 16 N/A
12:54 pm 12:54 Cloudy 36 2 34 1 93 93 NNE 20 31 29.29 992 5 8 N/A
1:14 pm 13:14 Cloudy 36 2 34 1 93 93 NNE 18 30 29.29 992 5 8 N/A
1:35 pm 13:35 Cloudy 36 2 34 1 93 93 NNE 17 28 29.29 992 4 6 N/A
1:54 pm 13:54 Cloudy 36 2 34 1 93 93 NNE 20 31 29.29 992 5 8 N/A
2:14 pm 14:14 Cloudy 36 2 34 1 93 93 N 15 24 29.29 992 3 5 N/A
2:35 pm 14:35 Cloudy 36 2 34 1 93 93 N 21 33 29.29 992 5 8 N/A
2:54 pm 14:54 Cloudy 36 2 34 1 93 93 N 14 22 29.29 992 4 6 N/A
3:14 pm 15:14 Cloudy 36 2 34 1 93 93 N 17 28 29.29 992 4 6 N/A
3:35 pm 15:35 Cloudy 34 1 34 1 100 100 N 16 26 29.29 992 3 5 N/A
3:54 pm 15:54 Cloudy 34 1 34 1 100 100 N 16 26 29.29 992 3 5 N/A
4:15 pm 16:15 Cloudy 34 1 34 1 100 100 N 18 30 29.29 992 4 6 N/A
4:35 pm 16:35 Cloudy 34 1 32 undefined 93 93 N 17 28 29.29 992 3 5 N/A
4:54 pm 16:54 Cloudy 32 undefined 32 undefined 100 100 N 17 28 29.32 993 2 3 N/A
5:15 pm 17:15 Cloudy 32 undefined 32 undefined 100 100 NNW 16 26 29.32 993 1 2 N/A
5:34 pm 17:34 Cloudy 32 undefined 32 undefined 100 100 NNW 17 28 29.35 994 1 2 N/A
5:54 pm 17:54 Cloudy 32 undefined 30 -1 93 93 NNW 16 26 29.35 994 1 2 N/A
6:15 pm 18:15 Cloudy 32 undefined 32 undefined 100 100 NNW 17 28 29.38 995 2 2 N/A
6:34 pm 18:34 Cloudy 32 undefined 32 undefined 100 100 NNW 16 26 29.38 995 2 3 N/A
6:54 pm 18:54 Cloudy 32 undefined 32 undefined 100 100 NNW 15 24 29.41 996 2 2 N/A
7:15 pm 19:15 Cloudy 32 undefined 32 undefined 100 100 NNW 18 30 29.41 996 2 3 N/A
7:34 pm 19:34 Cloudy 32 undefined 32 undefined 100 100 NW 16 26 29.41 996 2 3 N/A
7:55 pm 19:55 Cloudy 32 undefined 32 undefined 100 100 NW 17 28 29.44 997 2 3 N/A
8:15 pm 20:15 Cloudy 32 undefined 32 undefined 100 100 NW 16 26 29.44 997 4 6 N/A
8:34 pm 20:34 Cloudy 32 undefined 30 -1 93 93 NW 20 31 29.44 997 4 6 N/A
8:55 pm 20:55 Cloudy 32 undefined 30 -1 93 93 NW 18 30 29.47 998 7 11 N/A
9:14 pm 21:14 Cloudy 32 undefined 30 -1 93 93 NW 18 30 29.47 998 5 8 N/A
9:34 pm 21:34 Cloudy 32 undefined 30 -1 93 93 NW 17 28 29.50 999 4 6 N/A
9:55 pm 21:55 Cloudy 32 undefined 30 -1 93 93 NW 18 30 29.50 999 10 16 N/A
10:14 pm 22:14 Cloudy 32 undefined 30 -1 93 93 NW 17 28 29.50 999 10 16 N/A
10:34 pm 22:34 Cloudy 32 undefined 30 -1 93 93 NW 20 31 29.53 1000 7 11 N/A
10:55 pm 22:55 Cloudy 32 undefined 30 -1 93 93 NW 17 28 29.53 1000 10 16 N/A
11:14 pm 23:14 Cloudy 32 undefined 30 -1 93 93 NW 17 28 29.56 1001 7 11 N/A
11:34 pm 23:34 Cloudy 32 undefined 30 -1 93 93 NW 15 24 29.56 1001 4 6 N/A
11:55 pm 23:55 Cloudy 32 undefined 30 -1 93 93 NW 21 33 29.56 1001 10 16 N/A

Powered by AerisWeather